[[{"header":{"parameterUnit":"m.s-1","parameterCategory":1,"la1":30.2991,"la2":30.254,"lo1":-89.0895,"lo2":-89.0444,"dy":0.0017,"dx":0.0017,"nx":28,"ny":28,"refTime":"2025-08-20T09:00:00:Z","depth":0,"parameterNumber":2,"parameterNumberName":"U-component_of_WINDS"},"data":[0,0,0,0,0,0,0,0,0,0,0,0,0,0,0,0,0,0,0,0,0,0,0,0,0,0,0,0,0,0,0,0,0,0,0,0,0,0,0,0,0,0,0,0,0,0,0,0,0,0,0,0,0,0,0,0,0,0,-0.7936,-0.7936,0,-0.7912,-0.7911,-0.7911,-0.7898,-0.7898,-0.7898,-0.7898,-0.7872,-0.7872,-0.7871,0,0,0,0,0,0,0,0,0,0,0,0,0,-0.7972,-0.7972,-0.7937,-0.7936,-0.7936,-0.7912,-0.7911,-0.7911,-0.7898,-0.7898,-0.7898,-0.7898,-0.7873,-0.7872,-0.7871,0,0,0,0,0,0,0,0,0,0,0,0,0,-0.7953,-0.7972,-0.7937,-0.7926,-0.7925,-0.7912,-0.7911,-0.7911,-0.7898,-0.7898,-0.7898,-0.7898,-0.7873,-0.7872,-0.7871,-0.7866,0,0,-0.7868,-0.7868,0,0,0,0,0,0,0,0,-0.7954,-0.7952,-0.7928,-0.7927,-0.7926,-0.7908,-0.7915,-0.7896,-0.7898,-0.7908,-0.7898,-0.7898,-0.7884,-0.7882,-0.7878,-0.7865,-0.7863,-0.7868,-0.7867,-0.7867,-0.7867,0,0,0,0,0,0,0,-0.7956,-0.7953,-0.7927,-0.7928,-0.7926,-0.7923,-0.792,-0.7911,-0.7897,-0.7907,-0.7906,-0.7904,-0.7884,-0.7879,-0.7877,-0.7863,-0.7868,-0.7867,-0.7866,-0.7866,-0.7845,-0.7845,0,0,0,0,0,0,-0.7959,-0.7954,-0.7927,-0.7926,-0.794,-0.7922,-0.7919,-0.7914,-0.7897,-0.7894,-0.7904,-0.7903,-0.788,-0.7878,-0.7876,-0.7869,-0.7867,-0.7866,-0.7865,-0.7845,-0.7845,-0.7845,0,0,0,0,0,0,-0.7959,-0.7956,-0.7928,-0.794,-0.7936,-0.7922,-0.7916,-0.7913,-0.7908,-0.7894,-0.7891,-0.7901,-0.788,-0.7877,-0.7868,-0.7868,-0.7865,-0.7865,-0.7845,-0.7845,-0.7845,-0.7854,0,0,0,0,0,0,-0.796,-0.7957,-0.7954,-0.794,-0.7935,-0.7921,-0.7916,-0.7913,-0.7907,-0.7906,-0.7891,-0.7889,-0.788,-0.787,-0.7867,-0.7866,-0.7864,-0.7844,-0.7845,-0.7845,-0.7854,-0.7855,-0.7855,0,0,0,0,0,-0.7962,-0.7958,-0.7954,-0.7951,-0.7932,-0.7921,-0.7919,-0.7909,-0.7907,-0.7904,-0.7895,-0.7889,-0.7868,-0.7869,-0.7866,-0.7865,-0.7844,-0.7845,-0.7845,-0.7854,-0.7855,-0.7855,0,0,0,0,0,0,-0.7973,-0.7956,-0.7952,-0.7943,-0.7934,-0.7919,-0.7916,-0.791,-0.7901,-0.79,-0.7888,-0.7885,-0.7877,-0.787,-0.7871,-0.7859,-0.7856,-0.7855,-0.7864,-0.7865,-0.7865,-0.7867,-0.7863,0,0,0,0,0,-0.7975,-0.7967,-0.7953,-0.7947,-0.7942,-0.793,-0.7925,-0.7918,-0.7907,-0.7903,-0.7893,-0.7884,-0.7875,-0.7869,-0.7861,-0.7853,-0.785,-0.7851,-0.7852,-0.7852,-0.7852,-0.7847,-0.7848,-0.7845,-0.7845,-0.7845,0,0,-0.7978,-0.7967,-0.7963,-0.7949,-0.794,-0.7933,-0.7926,-0.7919,-0.7913,-0.7902,-0.7893,-0.7886,-0.7874,-0.7866,-0.7861,-0.7859,-0.7852,-0.7852,-0.7853,-0.7852,-0.7847,-0.7848,-0.7848,-0.7845,-0.7845,-0.7845,0,0,-0.7979,-0.7971,-0.7965,-0.7957,-0.7945,-0.7937,-0.7935,-0.7921,-0.7916,-0.7907,-0.7899,-0.7892,-0.7877,-0.7869,-0.7863,-0.7862,-0.7856,-0.7859,-0.7863,-0.7858,-0.7859,-0.7859,-0.7858,-0.7858,-0.7859,-0.7859,-0.7859,0,-0.7984,-0.7973,-0.7962,-0.7955,-0.7949,-0.7939,-0.7933,-0.7926,-0.7911,-0.7907,-0.7905,-0.7887,-0.7878,-0.7868,-0.7868,-0.7863,-0.7861,-0.7861,-0.786,-0.786,-0.786,-0.7859,-0.7859,-0.786,-0.786,-0.786,-0.7859,0,-0.798,-0.7972,-0.7968,-0.7955,-0.7948,-0.7941,-0.793,-0.7925,-0.7919,-0.7911,-0.7902,-0.7891,-0.788,-0.7877,-0.7871,-0.7866,-0.7866,-0.7862,-0.7858,-0.786,-0.786,-0.7859,-0.786,-0.786,-0.786,-0.786,0,0,-0.7987,-0.7968,-0.7967,-0.7961,-0.7947,-0.794,-0.7934,-0.7923,-0.7918,-0.7909,-0.7903,-0.7891,-0.7887,-0.788,-0.7873,-0.787,-0.787,-0.7866,-0.7866,-0.7867,-0.7864,-0.7866,-0.7866,-0.7866,-0.7866,-0.7866,-0.7865,0,-0.7986,-0.7973,-0.7964,-0.7954,-0.7947,-0.7938,-0.7932,-0.7923,-0.7915,-0.7908,-0.79,-0.7891,-0.7887,-0.7883,-0.7879,-0.7871,-0.7869,-0.7871,-0.786,-0.786,-0.7863,-0.7866,-0.7869,-0.7868,-0.7864,-0.7864,-0.7864,0,-0.7984,-0.7974,-0.7964,-0.7951,-0.7948,-0.7942,-0.7932,-0.7925,-0.7915,-0.7909,-0.7902,-0.7895,-0.7888,-0.7885,-0.7875,-0.7876,-0.7871,-0.7866,-0.7866,-0.7864,-0.7862,-0.7864,-0.7867,-0.7867,-0.7864,-0.7864,-0.7864,0,-0.799,-0.7975,-0.7967,-0.7962,-0.7947,-0.7943,-0.7937,-0.7926,-0.792,-0.7911,-0.7907,-0.7898,-0.7892,-0.7885,-0.7876,-0.7875,-0.7866,-0.7863,-0.7861,-0.7862,-0.786,-0.786,-0.7862,-0.7857,-0.7857,-0.7857,-0.7857,0,-0.799,-0.7984,-0.7969,-0.7964,-0.7958,-0.7947,-0.7941,-0.7933,-0.7924,-0.7918,-0.791,-0.7904,-0.7892,-0.7885,-0.7877,-0.787,-0.7867,-0.7863,-0.7861,-0.7863,-0.7864,-0.786,-0.786,-0.7857,-0.7857,-0.7857,-0.7857,0,-0.7995,-0.7985,-0.7976,-0.7963,-0.7959,-0.7954,-0.7943,-0.7938,-0.793,-0.7922,-0.792,-0.7908,-0.7899,-0.7889,-0.7877,-0.7872,-0.7864,-0.7862,-0.7868,-0.7867,-0.7866,-0.7866,-0.7865,-0.7864,-0.7861,-0.7861,-0.7861,0,-0.7996,-0.7991,-0.7977,-0.7972,-0.7966,-0.7958,-0.7952,-0.7942,-0.7936,-0.7924,-0.792,-0.7911,-0.7902,-0.7889,-0.7879,-0.787,-0.7867,-0.7867,-0.7865,-0.7868,-0.7866,-0.7867,-0.7866,-0.7867,-0.7867,-0.7868,-0.7868,0,-0.7997,-0.7993,-0.7985,-0.7975,-0.7968,-0.796,-0.7951,-0.7948,-0.7936,-0.793,-0.7921,-0.7914,-0.7902,-0.7892,-0.7882,-0.7875,-0.787,-0.7868,-0.7868,-0.787,-0.7873,-0.7871,-0.7869,-0.7868,-0.7868,-0.7868,-0.7868,-0.7868,-0.8,-0.7995,-0.7985,-0.7976,-0.7969,-0.7961,-0.7955,-0.7947,-0.7939,-0.7928,-0.7923,-0.7914,-0.7904,-0.7889,-0.7883,-0.7876,-0.7874,-0.7873,-0.7872,-0.7872,-0.7873,-0.7875,-0.7874,-0.7874,-0.7874,-0.7874,-0.7874,0,-0.8001,-0.7994,-0.7986,-0.7974,-0.7967,-0.7963,-0.7953,-0.7948,-0.794,-0.7931,-0.7923,-0.7912,-0.7903,-0.7893,-0.7884,-0.788,-0.7877,-0.7878,-0.7878,-0.7876,-0.7875,-0.7876,-0.788,-0.788,-0.788,-0.788,-0.788,-0.788,-0.8001,-0.7993,-0.7987,-0.7975,-0.7968,-0.7959,-0.7954,-0.7947,-0.794,-0.7928,-0.7921,-0.7914,-0.7905,-0.7895,-0.7886,-0.7883,-0.788,-0.7882,-0.7878,-0.7877,-0.7876,-0.7876,-0.7877,-0.7881,-0.7881,-0.788,-0.788,-0.788]},{"header":{"parameterUnit":"m.s-1","parameterCategory":1,"la1":30.2991,"la2":30.254,"lo1":-89.0895,"lo2":-89.0444,"dy":0.0017,"dx":0.0017,"nx":28,"ny":28,"refTime":"2025-08-20T09:00:00:Z","depth":0,"parameterNumber":3,"parameterNumberName":"V-component_of_WINDS"},"data":[0,0,0,0,0,0,0,0,0,0,0,0,0,0,0,0,0,0,0,0,0,0,0,0,0,0,0,0,0,0,0,0,0,0,0,0,0,0,0,0,0,0,0,0,0,0,0,0,0,0,0,0,0,0,0,0,0,0,-1.0956,-1.0957,0,-1.0997,-1.0998,-1.0998,-1.1004,-1.1003,-1.1003,-1.1003,-1.1046,-1.1048,-1.1049,0,0,0,0,0,0,0,0,0,0,0,0,0,-1.0885,-1.0887,-1.0956,-1.0957,-1.0957,-1.0997,-1.0998,-1.0998,-1.1004,-1.1003,-1.1003,-1.1002,-1.1046,-1.1048,-1.105,0,0,0,0,0,0,0,0,0,0,0,0,0,-1.092,-1.0887,-1.0956,-1.0965,-1.0966,-1.0997,-1.0998,-1.0999,-1.1004,-1.1003,-1.1003,-1.1002,-1.1045,-1.1048,-1.105,-1.1076,0,0,-1.1057,-1.1058,0,0,0,0,0,0,0,0,-1.0918,-1.0923,-1.0963,-1.0964,-1.0966,-1.0995,-1.0989,-1.1024,-1.1004,-1.099,-1.1003,-1.1002,-1.103,-1.1033,-1.1042,-1.1078,-1.108,-1.1057,-1.1058,-1.1059,-1.106,0,0,0,0,0,0,0,-1.0916,-1.0921,-1.0973,-1.0964,-1.0965,-1.0967,-1.0972,-1.0996,-1.1013,-1.0991,-1.0991,-1.0996,-1.103,-1.104,-1.1043,-1.108,-1.1057,-1.1059,-1.106,-1.1061,-1.114,-1.114,0,0,0,0,0,0,-1.0912,-1.0919,-1.0971,-1.0974,-1.094,-1.0969,-1.0974,-1.0986,-1.1012,-1.1016,-1.0996,-1.0996,-1.1037,-1.1041,-1.1045,-1.1077,-1.1059,-1.1062,-1.1063,-1.1139,-1.114,-1.114,0,0,0,0,0,0,-1.091,-1.0916,-1.097,-1.0947,-1.0954,-1.0971,-1.0985,-1.0987,-1.0997,-1.1017,-1.102,-1.1003,-1.1036,-1.1042,-1.1068,-1.1079,-1.1063,-1.1065,-1.1138,-1.1139,-1.114,-1.1142,0,0,0,0,0,0,-1.0908,-1.0916,-1.0925,-1.0947,-1.0955,-1.0991,-1.0985,-1.0988,-1.1001,-1.1001,-1.1024,-1.1027,-1.1036,-1.1065,-1.107,-1.1082,-1.1066,-1.1137,-1.1138,-1.114,-1.1141,-1.1143,-1.1144,0,0,0,0,0,-1.0905,-1.0924,-1.0925,-1.0932,-1.0967,-1.0992,-1.0997,-1.1006,-1.1001,-1.1011,-1.1024,-1.1026,-1.1077,-1.1067,-1.1074,-1.1086,-1.1136,-1.1138,-1.114,-1.114,-1.1142,-1.1144,0,0,0,0,0,0,-1.0904,-1.0927,-1.0929,-1.0955,-1.0971,-1.0993,-1.1006,-1.1008,-1.1027,-1.1026,-1.1038,-1.1043,-1.1069,-1.108,-1.1069,-1.1113,-1.1106,-1.1109,-1.1104,-1.1107,-1.1108,-1.1105,-1.1068,0,0,0,0,0,-1.0906,-1.0924,-1.0944,-1.0965,-1.0973,-1.0988,-1.0999,-1.1005,-1.1023,-1.103,-1.1045,-1.1062,-1.1082,-1.1095,-1.1115,-1.1142,-1.1148,-1.1154,-1.1156,-1.1157,-1.116,-1.1176,-1.1179,-1.1146,-1.1146,-1.1146,0,0,-1.0912,-1.0927,-1.0938,-1.0965,-1.0978,-1.0997,-1.0994,-1.1014,-1.1028,-1.1033,-1.1059,-1.107,-1.1091,-1.1118,-1.1131,-1.1128,-1.117,-1.1159,-1.116,-1.1162,-1.1178,-1.1181,-1.1184,-1.1147,-1.1146,-1.1146,0,0,-1.0932,-1.0945,-1.0964,-1.0978,-1.0998,-1.1007,-1.1012,-1.1033,-1.1041,-1.1066,-1.1071,-1.1089,-1.1123,-1.1137,-1.1149,-1.1175,-1.1178,-1.1181,-1.119,-1.1206,-1.1208,-1.1211,-1.122,-1.1223,-1.1183,-1.1183,-1.1183,0,-1.0936,-1.0964,-1.0974,-1.0993,-1.1006,-1.1011,-1.1031,-1.1044,-1.107,-1.1078,-1.1075,-1.1118,-1.1132,-1.1163,-1.1169,-1.1179,-1.1185,-1.1178,-1.1207,-1.1209,-1.1212,-1.1221,-1.1225,-1.1184,-1.1184,-1.1183,-1.1183,0,-1.0969,-1.0988,-1.1002,-1.1026,-1.104,-1.1059,-1.1073,-1.1086,-1.1091,-1.1101,-1.1128,-1.1145,-1.1168,-1.1176,-1.1181,-1.1208,-1.1205,-1.1204,-1.1198,-1.1215,-1.1224,-1.1228,-1.1184,-1.1184,-1.1184,-1.1184,0,0,-1.0988,-1.1018,-1.1023,-1.1034,-1.1057,-1.1072,-1.1092,-1.1114,-1.1126,-1.1143,-1.1161,-1.119,-1.1189,-1.1203,-1.121,-1.1223,-1.1243,-1.1221,-1.1221,-1.1224,-1.1274,-1.1274,-1.1278,-1.1245,-1.1246,-1.1246,-1.1272,0,-1.1011,-1.1047,-1.1056,-1.1087,-1.1105,-1.1111,-1.1129,-1.1145,-1.1156,-1.1173,-1.1185,-1.1205,-1.1203,-1.1211,-1.1224,-1.1238,-1.1253,-1.1236,-1.1262,-1.1263,-1.1257,-1.1283,-1.1284,-1.1307,-1.1276,-1.1276,-1.1277,0,-1.1042,-1.106,-1.1092,-1.1113,-1.1121,-1.1137,-1.1158,-1.1174,-1.1193,-1.12,-1.1215,-1.1221,-1.1244,-1.1236,-1.1268,-1.1256,-1.1267,-1.1275,-1.1277,-1.1279,-1.1271,-1.1286,-1.1315,-1.1318,-1.1282,-1.1282,-1.1281,0,-1.1053,-1.1085,-1.1109,-1.1118,-1.1143,-1.1154,-1.1165,-1.1183,-1.1196,-1.1215,-1.1224,-1.1245,-1.1257,-1.1274,-1.1286,-1.1279,-1.1316,-1.131,-1.1323,-1.1323,-1.133,-1.133,-1.1361,-1.1338,-1.1338,-1.1337,-1.1337,0,-1.1077,-1.1096,-1.1114,-1.1128,-1.1151,-1.1162,-1.1184,-1.1195,-1.1212,-1.1229,-1.1236,-1.1252,-1.1267,-1.1285,-1.1295,-1.132,-1.1325,-1.1332,-1.1334,-1.1331,-1.133,-1.1339,-1.1337,-1.1338,-1.1338,-1.1338,-1.1338,0,-1.1093,-1.1105,-1.1131,-1.1153,-1.1159,-1.1174,-1.1193,-1.1208,-1.1218,-1.124,-1.1246,-1.1264,-1.1286,-1.1299,-1.1328,-1.1334,-1.1361,-1.1363,-1.1355,-1.1356,-1.1368,-1.1367,-1.1406,-1.1412,-1.1384,-1.1385,-1.1385,0,-1.1107,-1.1122,-1.1145,-1.1157,-1.1168,-1.1187,-1.12,-1.1212,-1.1226,-1.1249,-1.1261,-1.1283,-1.1302,-1.1337,-1.1353,-1.1375,-1.1377,-1.1389,-1.138,-1.1377,-1.1378,-1.1376,-1.1378,-1.1391,-1.1391,-1.1391,-1.1391,0,-1.1131,-1.1137,-1.1155,-1.1176,-1.1191,-1.1208,-1.1225,-1.1234,-1.1249,-1.1264,-1.1287,-1.1301,-1.133,-1.1353,-1.1376,-1.1388,-1.1392,-1.1394,-1.1398,-1.1395,-1.139,-1.1393,-1.1359,-1.1393,-1.1393,-1.1393,-1.1393,-1.1392,-1.1147,-1.1161,-1.118,-1.12,-1.1214,-1.123,-1.1244,-1.1257,-1.1276,-1.13,-1.1306,-1.133,-1.1349,-1.1381,-1.1394,-1.1413,-1.1411,-1.1417,-1.1419,-1.142,-1.142,-1.1387,-1.1417,-1.1417,-1.1417,-1.1417,-1.1417,0,-1.1172,-1.1184,-1.1203,-1.1226,-1.1242,-1.1244,-1.1264,-1.1277,-1.1298,-1.1315,-1.1333,-1.1359,-1.1381,-1.1399,-1.1422,-1.1434,-1.1436,-1.1439,-1.1439,-1.1441,-1.142,-1.1415,-1.1437,-1.1437,-1.1437,-1.1437,-1.1437,-1.1437,-1.1187,-1.121,-1.1218,-1.1249,-1.1262,-1.1284,-1.1295,-1.131,-1.1324,-1.1353,-1.1371,-1.1382,-1.14,-1.1424,-1.1444,-1.1449,-1.1457,-1.146,-1.1465,-1.1445,-1.1443,-1.1441,-1.1435,-1.1461,-1.1462,-1.1484,-1.1484,-1.1485]}]]